Location: Pescara
(42.4670°N, 14.2170°E)
Time: 03:57:30
(UTC+02:00)

ISS - Pass Details

Date: 12 May 2021
Orbit: 417 x 422 km, 51.6° (Epoch: 14 June)

Event Time Altitude Azimuth Distance (km) Brightness Sun altitude
Exits shadow 02:50:33 - 313° (NW) 1,700 -0.5 -24.2°
Reaches altitude 10° 02:51:12 10° 321° (NW) 1,508 -0.7 -24.1°
Maximum altitude 02:53:34 18° 5° (N) 1,133 -0.8 -23.9°
Drops below altitude 10° 02:55:57 10° 50° (NE) 1,509 0.0 -23.7°
Sets 02:58:33 0° 70° (ENE) 2,374 0.8 -23.5°
